User: anonymous   Login
Location: Mladá Boleslav
(50.4134°N, 14.9084°E)
Time: 08:42:21
(UTC+02:00)
Language:

ESTCUBE 1 - Orbit

View from above orbital plane
View from above orbital plane
View from above satellite
View from above satellite

Ground track
Ground track

The orbit data is extracted from the following two-line orbital elements,

1 39161U 13021C   24141.75638085  .00004680  00000-0  68213-3 0  9992
2 39161  97.8296 209.0568 0007909 325.7502  34.3197 14.76263760593086
Epoch (UTC): 20 May 2024 18:09:11
Eccentricity: 0.0007909
inclination: 97.8296°
perigee height: 635 km
apogee height: 646 km
right ascension of ascending node: 209.0568°
argument of perigee: 325.7502°
revolutions per day: 14.76263760
mean anomaly at epoch: 34.3197°
orbit number at epoch: 59308

The dashed part of the orbit path shows where the satellite is in the earth's shadow,  

DLR